Overview Statistics Trail Chart Weather Telemetry Raw packets
 

This is the latest recevied weather packets stored in our database for station/object DL2AMT-9. If no packets are shown the sender has not sent any weather packets the latest 10 day(s).

<< 2 3 4 5 6 >>
Time Temp. Humidity Pressure Rain* Wind** Luminosity Snow
1777810129 28.89° C 25% 968.5 hPa - - - -
1777809828 28.89° C 25% 968.6 hPa - - - -
1777809528 28.89° C 25% 968.6 hPa - - - -
1777809228 29.44° C 25% 968.7 hPa - - - -
1777808928 30.56° C 24% 968.6 hPa - - - -
1777808628 31.11° C 24% 968.6 hPa - - - -
1777808328 31.67° C 23% 968.7 hPa - - - -
1777808028 31.67° C 26% 968.8 hPa - - - -
1777807728 30.56° C 25% 968.7 hPa - - - -
1777807428 30.56° C 24% 968.9 hPa - - - -
1777807127 32.78° C 23% 968.9 hPa - - - -
1777806728 32.22° C 26% 969.2 hPa - - - -
1777806427 31.11° C 24% 969.2 hPa - - - -
1777806127 31.11° C 26% 969.2 hPa - - - -
1777805827 30° C 31% 969.3 hPa - - - -
1777805527 30.56° C 30% 969.4 hPa - - - -
1777805227 30.56° C 31% 969.4 hPa - - - -
1777804927 30.56° C 30% 969.4 hPa - - - -
1777804627 31.11° C 30% 969.4 hPa - - - -
1777804327 31.67° C 30% 969.4 hPa - - - -
1777804027 32.22° C 30% 969.4 hPa - - - -
1777803727 32.78° C 29% 969.5 hPa - - - -
1777803427 33.33° C 30% 969.6 hPa - - - -
1777803127 33.89° C 30% 969.7 hPa - - - -
1777802827 33.89° C 30% 969.8 hPa - - - -

* Rain since midnight (hover to see other rain measurements)
** Current wind speed in m/s (hover to see current wind gust speed)